sat.trackr.live / text

‹ back to catalog

TOMORROW-S9

NORAD 66309 · 2025-248S

PAYLOAD ACTIVE UNKNOWN

§ Identity

Operator
Country
US
Launch date
2025-11-02
Launch site
AFETR
Launch vehicle
Mass (kg)
RCS (m²)

External: N2YO · Heavens-Above · Gunter

§ Orbital elements

Epoch: 2026-09-20T05:55:48.664992Z

Period
94.66 min
Inclination
45.4041°
Eccentricity
0.0004242
Mean motion
15.21200435 rev/d
Perigee alt
499.3 km
Apogee alt
505.1 km
Semi-major
6,880.4 km
B*
1.2857e-4
RAAN
331.7933°
Arg perigee
249.3246°
Mean anomaly
110.7186°
Rev number
4,898

§ Raw data

TOMORROW-S91 66309U 25248S   26263.24709103  .00002636  00000+0  12857-3 0  99922 66309  45.4041 331.7933 0004242 249.3246 110.7186 15.21200435 48981

JSON: /api/v1/satellites/66309 · /tle

For live sub-satellite position, see the globe view (requires WebGL).

§ Visibility from observer

Set your observer location to see the next 7 days of passes ≥ 10°. The values pass through the URL so the page stays shareable.

No JS? Fill the form by hand. The geolocation button needs JavaScript.